Lexington, KY

6:31 AM EDT on March 28, 2017 (GMT -0400)
Blue Grass

Weather History for KLEX - December, 2011

Change the Weather History Date:

Saturday, December 10, 2011

  Actual Average Record
Temperature  
Mean Temperature 28 °F 37 °F  
Max Temperature 35 °F 45 °F 72 °F (1971)
Min Temperature 21 °F 29 °F -9 °F (1917)
Degree Days  
Heating Degree Days 37 28  
Month to date heating degree days 254 265  
Since 1 July heating degree days 1105 1152  
Cooling Degree Days 0 0  
Month to date cooling degree days 0 0  
Year to date cooling degree days 1306 1190  
Moisture  
Dew Point 17 °F    
Average Humidity 63    
Maximum Humidity 82    
Minimum Humidity 43    
Precipitation  
Precipitation 0.00 in 0.14 in 1.33 in (1994)
Month to date precipitation 2.15 1.32  
Year to date precipitation 64.07 42.56  
Snow  
Snow 0.00 in 0.00 in 3.00 in (1903)
Month to date snowfall T 0.5  
Since 1 July snowfall T 0.8  
Snow Depth 0.00 in    
Sea Level Pressure  
Sea Level Pressure 30.51 in    
Wind  
Wind Speed 4 mph (NNW)    
Max Wind Speed 14 mph    
Max Gust Speed 18 mph    
Visibility 10 miles    
Events      
T = Trace of Precipitation, MM = Missing Value Source: NWS Daily Summary

Daily Weather History Graph

Daily Weather History Graph

Search for Another Location

Airport or City:

Trip Planner

Search our weather history database for the weather conditions in past years. The results will help you decide how hot, cold, wet, or windy it might be!

Date:

Astronomy

Dec. 10, 2011 Rise Set
Actual Time 7:43 AM EST 5:18 PM EST
Civil Twilight 7:14 AM EST 5:48 PM EST
Nautical Twilight 6:41 AM EST 6:21 PM EST
Astronomical Twilight 6:09 AM EST 6:53 PM EST
Moon 5:32 PM EST (12/10) 7:42 AM EST (12/10)
Length of Visible Light 10h 34m
Length of Day
9h 35m
Full, 100% of the Moon is Illuminated
Dec 10
Full
Dec 17
Last Quarter
Dec 24
New
Jan 1
First Quarter
Jan 9
Full

Hourly Weather History & Observations

Time (EST) Temp. Windchill Dew Point Humidity Pressure Visibility Wind Dir Wind Speed Gust Speed Precip Events Conditions
12:08 AM 33.8 °F 26.4 °F 28.4 °F 81% 30.38 in 10.0 mi North 9.2 mph - N/A   Overcast
12:13 AM 33.8 °F 25.8 °F 28.4 °F 81% 30.38 in 10.0 mi North 10.4 mph - N/A   Overcast
12:54 AM 32.0 °F 24.8 °F 25.0 °F 75% 30.40 in 10.0 mi NNW 8.1 mph - N/A   Overcast
1:54 AM 30.9 °F 23.5 °F 24.1 °F 76% 30.41 in 10.0 mi NNW 8.1 mph - N/A   Mostly Cloudy
2:54 AM 28.9 °F 19.8 °F 21.9 °F 75% 30.43 in 10.0 mi NNW 10.4 mph - N/A   Clear
3:54 AM 26.1 °F 19.4 °F 21.0 °F 81% 30.46 in 10.0 mi NNW 5.8 mph - N/A   Clear
4:54 AM 24.1 °F 16.0 °F 17.1 °F 75% 30.47 in 10.0 mi NNW 6.9 mph - N/A   Clear
5:54 AM 23.0 °F 15.8 °F 16.0 °F 74% 30.50 in 10.0 mi North 5.8 mph - N/A   Clear
6:54 AM 21.9 °F 14.5 °F 16.0 °F 78% 30.52 in 10.0 mi NNW 5.8 mph - N/A   Clear
7:54 AM 21.9 °F - 16.0 °F 78% 30.53 in 10.0 mi Calm Calm - N/A   Clear
8:54 AM 25.0 °F - 17.1 °F 72% 30.55 in 10.0 mi Calm Calm - N/A   Clear
9:54 AM 28.0 °F - 18.0 °F 66% 30.57 in 10.0 mi Calm Calm - N/A   Clear
10:54 AM 28.9 °F 25.2 °F 17.1 °F 61% 30.58 in 10.0 mi West 3.5 mph - N/A   Clear
11:54 AM 32.0 °F 26.4 °F 14.0 °F 48% 30.57 in 10.0 mi Variable 5.8 mph - N/A   Clear
12:54 PM 33.1 °F 28.7 °F 14.0 °F 46% 30.55 in 10.0 mi NW 4.6 mph - N/A   Clear
1:54 PM 34.0 °F 28.0 °F 14.0 °F 44% 30.53 in 10.0 mi Variable 6.9 mph - N/A   Clear
2:54 PM 34.0 °F 27.2 °F 14.0 °F 44% 30.53 in 10.0 mi NW 8.1 mph - N/A   Clear
3:54 PM 33.1 °F 26.1 °F 14.0 °F 46% 30.53 in 10.0 mi NW 8.1 mph - N/A   Clear
4:54 PM 30.9 °F 26.2 °F 15.1 °F 52% 30.54 in 10.0 mi NNW 4.6 mph - N/A   Clear
5:54 PM 28.0 °F 22.8 °F 14.0 °F 56% 30.54 in 10.0 mi NW 4.6 mph - N/A   Clear
6:54 PM 28.0 °F - 12.9 °F 53% 30.54 in 10.0 mi Calm Calm - N/A   Clear
7:54 PM 27.0 °F - 12.9 °F 56% 30.55 in 10.0 mi Calm Calm - N/A   Clear
8:54 PM 26.1 °F - 12.9 °F 58% 30.56 in 10.0 mi Calm Calm - N/A   Clear
9:54 PM 21.9 °F - 16.0 °F 78% 30.56 in 10.0 mi Calm Calm - N/A   Clear
10:54 PM 21.9 °F - 14.0 °F 72% 30.56 in 10.0 mi Calm Calm - N/A   Clear
11:54 PM 21.0 °F - 15.1 °F 78% 30.56 in 10.0 mi Calm Calm - N/A   Clear